Temp
-11 -11 -11 -12 -12 -11 -11 -11 -11 -11 -11 -10 -11 -10 -10 -11 -10 -10 -10 -11 -10 -10 -10 -10 -10 -11 -10 -11 -11 -11 -11 -11 -11 -11 -11 -11 -11 -11 -12 -12 -12 -12 -11 -11
-11 -11 -12 -12 -12 -11 -11 -11 -11 -12 -10 -10 -11 -10 -10 -10 -11 -11 -10 -11 -11 -11 -11 -11 -10 -10 -11 -11 -11 -11 -11 -11 -11 -11 -11 -11 -11 -12 -12 -12 -12 -12 -12 -11
-11 -11 -12 -12 -12 -12 -12 -12 -12 -11 -11 -10 -10 -10 -10 -11 -10 -11 -11 -11 -11 -11 -11 -11 -10 -11 -11 -11 -11 -11 -11 -11 -11 -11 -11 -11 -11 -11 -12 -12 -12 -12 -12 -12
-12 -11 -11 -11 -12 -12 -12 -12 -12 -12 -11 -11 -11 -9 -10 -10 -10 -11 -11 -11 -11 -11 -11 -11 -11 -11 -11 -11 -11 -11 -11 -11 -11 -11 -11 -11 -11 -11 -11 -12 -12 -12 -12 -12
-12 -12 -12 -12 -12 -12 -12 -12 -12 -12 -12 -11 -11 -10 -9 -10 -10 -11 -11 -11 -11 -11 -11 -11 -11 -11 -11 -11 -11 -11 -11 -11 -11 -11 -11 -11 -11 -11 -11 -11 -11 -12 -12 -12
-13 -12 -13 -12 -12 -13 -12 -13 -13 -13 -12 -11 -11 -11 -9 -10 -10 -10 -11 -11 -11 -11 -11 -11 -11 -11 -11 -11 -11 -11 -11 -11 -11 -11 -11 -11 -11 -11 -11 -11 -11 -12 -12 -12
-14 -13 -13 -13 -13 -13 -13 -13 -13 -13 -13 -11 -11 -11 -9 -10 -10 -10 -10 -11 -11 -11 -11 -11 -11 -11 -11 -11 -11 -11 -11 -11 -11 -11 -11 -11 -11 -11 -11 -11 -12 -12 -12 -12
-14 -13 -13 -13 -14 -14 -14 -14 -14 -13 -13 -11 -12 -10 -9 -10 -10 -10 -11 -11 -11 -11 -11 -11 -11 -11 -11 -11 -11 -11 -11 -11 -11 -11 -11 -11 -11 -11 -11 -11 -12 -12 -12 -12
-15 -14 -14 -14 -14 -14 -14 -14 -14 -15 -14 -13 -11 -10 -10 -10 -10 -11 -11 -11 -11 -11 -11 -11 -12 -11 -11 -12 -12 -12 -12 -11 -11 -11 -11 -11 -11 -11 -11 -11 -12 -12 -12 -12
-16 -15 -14 -14 -14 -14 -15 -14 -15 -15 -14 -14 -11 -11 -10 -10 -11 -11 -11 -11 -12 -12 -12 -12 -12 -12 -12 -12 -12 -11 -12 -12 -11 -11 -11 -11 -11 -11 -11 -12 -12 -12 -13 -13
-16 -16 -15 -14 -14 -14 -15 -15 -15 -16 -15 -15 -14 -12 -11 -11 -11 -11 -11 -12 -12 -12 -12 -12 -12 -13 -12 -12 -12 -12 -12 -11 -12 -11 -11 -12 -12 -12 -12 -12 -13 -13 -14 -13
-16 -16 -15 -15 -15 -15 -15 -15 -16 -16 -15 -16 -16 -12 -12 -12 -12 -12 -13 -12 -12 -13 -14 -14 -14 -13 -13 -13 -13 -12 -12 -12 -12 -12 -11 -12 -12 -12 -13 -13 -13 -13 -13 -14
-17 -17 -16 -16 -16 -15 -15 -16 -16 -17 -17 -16 -16 -13 -13 -14 -14 -14 -14 -14 -14 -14 -14 -14 -15 -15 -15 -15 -14 -13 -13 -12 -12 -12 -12 -12 -12 -13 -14 -14 -14 -14 -14 -13
-19 -18 -17 -16 -17 -16 -16 -16 -17 -17 -17 -15 -16 -14 -13 -14 -15 -15 -14 -14 -14 -14 -14 -14 -15 -16 -16 -16 -16 -15 -14 -13 -13 -12 -13 -14 -14 -14 -14 -14 -14 -14 -14 -14
-19 -19 -19 -18 -18 -18 -18 -17 -17 -17 -17 -18 -15 -17 -13 -14 -15 -15 -15 -15 -15 -15 -15 -15 -15 -16 -16 -15 -15 -15 -14 -14 -14 -14 -14 -14 -14 -14 -14 -14 -14 -14 -14 -14
-20 -20 -20 -19 -19 -19 -19 -18 -18 -18 -18 -19 -18 -17 -15 -15 -16 -15 -15 -16 -15 -15 -15 -15 -15 -16 -15 -15 -15 -15 -15 -15 -14 -14 -15 -15 -15 -15 -14 -14 -14 -14 -14 -14
-21 -21 -21 -20 -20 -20 -20 -18 -19 -19 -19 -20 -20 -18 -17 -17 -16 -16 -17 -16 -16 -15 -15 -15 -15 -15 -16 -15 -15 -15 -15 -16 -15 -15 -15 -15 -15 -15 -15 -15 -15 -15 -15 -15
-22 -22 -22 -22 -22 -22 -20 -20 -19 -20 -19 -20 -20 -20 -19 -18 -17 -16 -18 -17 -17 -17 -16 -16 -16 -16 -16 -16 -16 -15 -15 -16 -16 -16 -15 -15 -15 -16 -16 -16 -16 -16 -16 -16
-23 -23 -23 -23 -22 -22 -21 -20 -21 -22 -21 -21 -21 -20 -19 -19 -19 -18 -18 -18 -17 -17 -17 -16 -16 -16 -16 -16 -17 -17 -17 -16 -16 -16 -16 -16 -16 -16 -16 -16 -17 -17 -17 -16
-23 -23 -24 -23 -23 -23 -21 -21 -21 -22 -22 -21 -21 -21 -21 -20 -20 -20 -20 -19 -19 -19 -18 -18 -17 -17 -17 -17 -17 -17 -17 -17 -17 -17 -16 -16 -16 -16 -17 -17 -17 -17 -17 -17
-24 -24 -24 -24 -24 -23 -22 -22 -22 -22 -22 -22 -21 -21 -22 -21 -21 -20 -20 -20 -20 -20 -20 -19 -19 -19 -18 -18 -18 -18 -17 -17 -17 -17 -17 -17 -17 -17 -17 -17 -17 -17 -18 -18
-24 -24 -24 -24 -24 -24 -22 -22 -22 -22 -23 -22 -22 -22 -22 -21 -21 -21 -20 -20 -20 -20 -20 -20 -19 -20 -19 -19 -19 -18 -18 -18 -19 -19 -18 -18 -18 -18 -19 -19 -18 -18 -18 -18
-25 -24 -24 -25 -25 -24 -23 -23 -23 -23 -23 -23 -23 -23 -22 -22 -22 -21 -21 -21 -21 -20 -20 -20 -20 -22 -21 -20 -20 -20 -20 -20 -20 -20 -20 -19 -19 -19 -19 -19 -19 -19 -19 -19
-25 -25 -26 -26 -24 -24 -25 -25 -25 -25 -25 -24 -24 -24 -24 -23 -23 -23 -23 -23 -22 -22 -22 -22 -22 -21 -21 -21 -20 -20 -21 -21 -20 -20 -20 -20 -20 -20 -20 -20 -20 -20 -20 -20
-26 -26 -26 -26 -25 -25 -26 -26 -26 -26 -26 -26 -25 -25 -26 -25 -25 -24 -23 -24 -24 -23 -23 -23 -22 -22 -22 -21 -21 -22 -22 -21 -21 -21 -21 -21 -21 -21 -21 -21 -20 -20 -20 -20
-26 -27 -28 -27 -26 -27 -27 -27 -27 -27 -27 -27 -27 -26 -26 -26 -26 -25 -25 -25 -25 -24 -24 -24 -23 -23 -23 -23 -22 -22 -22 -22 -22 -22 -23 -23 -22 -22 -21 -21 -21 -21 -21 -21
Height
5795 5799 5802 5804 5807 5810 5809 5814 5817 5819 5822 5824 5826 5829 5833 5834 5838 5842 5844 5845 5846 5847 5845 5845 5846 5846 5847 5847 5846 5845 5844 5843 5841 5840 5838 5837 5836 5835 5834 5832 5831 5830 5829 5829
5790 5793 5796 5798 5800 5803 5805 5807 5811 5815 5816 5818 5820 5822 5827 5830 5833 5835 5838 5841 5842 5842 5841 5840 5841 5841 5841 5841 5841 5839 5839 5838 5836 5834 5832 5830 5829 5828 5828 5826 5825 5825 5822 5821
5782 5785 5788 5791 5795 5796 5799 5801 5804 5808 5808 5811 5812 5812 5823 5824 5827 5830 5833 5835 5836 5836 5836 5835 5836 5837 5835 5835 5834 5833 5832 5832 5830 5828 5826 5825 5822 5821 5820 5820 5817 5817 5816 5815
5772 5776 5780 5783 5787 5789 5792 5794 5796 5799 5801 5802 5805 5801 5816 5818 5822 5824 5827 5829 5829 5829 5830 5830 5829 5830 5831 5829 5827 5827 5825 5824 5824 5821 5820 5818 5817 5815 5813 5812 5811 5809 5808 5807
5766 5769 5771 5776 5779 5780 5784 5786 5788 5791 5793 5795 5799 5797 5805 5814 5814 5818 5821 5822 5821 5823 5823 5823 5823 5822 5822 5822 5821 5819 5819 5817 5816 5815 5813 5811 5810 5808 5806 5805 5804 5802 5799 5799
5753 5758 5762 5766 5770 5772 5775 5777 5779 5780 5784 5788 5790 5793 5793 5803 5806 5809 5813 5815 5814 5815 5816 5815 5814 5814 5813 5814 5813 5812 5810 5809 5807 5806 5805 5803 5801 5800 5798 5798 5797 5794 5792 5791
5742 5748 5752 5756 5760 5763 5765 5768 5768 5771 5773 5781 5779 5784 5789 5788 5794 5802 5803 5805 5805 5807 5806 5806 5806 5805 5805 5805 5804 5804 5802 5801 5799 5798 5796 5793 5792 5791 5789 5788 5789 5786 5784 5782
5730 5734 5740 5746 5751 5753 5755 5758 5759 5759 5760 5771 5769 5776 5785 5781 5783 5789 5793 5793 5795 5794 5796 5796 5795 5795 5794 5794 5794 5794 5793 5792 5791 5789 5787 5786 5783 5782 5780 5778 5779 5776 5774 5772
5719 5724 5729 5734 5739 5740 5744 5745 5755 5747 5752 5752 5759 5771 5773 5776 5775 5773 5777 5780 5782 5782 5783 5783 5782 5783 5783 5782 5782 5780 5781 5781 5780 5779 5776 5774 5773 5771 5769 5767 5767 5765 5763 5760
5711 5714 5717 5723 5726 5728 5729 5735 5738 5735 5738 5739 5749 5755 5764 5768 5766 5764 5764 5764 5766 5767 5768 5770 5770 5771 5770 5770 5770 5769 5768 5767 5767 5766 5765 5763 5761 5760 5758 5755 5753 5752 5750 5748
5701 5704 5710 5713 5715 5719 5721 5726 5724 5725 5729 5729 5733 5741 5753 5755 5754 5752 5752 5750 5750 5750 5752 5755 5756 5754 5755 5755 5755 5757 5757 5755 5751 5750 5751 5751 5749 5747 5745 5743 5740 5738 5736 5734
5691 5693 5698 5704 5704 5706 5708 5713 5712 5709 5718 5714 5718 5727 5742 5744 5745 5741 5738 5738 5739 5740 5734 5733 5736 5738 5739 5739 5740 5741 5741 5740 5739 5738 5737 5736 5736 5734 5731 5729 5727 5724 5721 5719
5677 5679 5685 5691 5694 5694 5697 5700 5700 5700 5701 5700 5702 5716 5732 5729 5727 5727 5728 5729 5726 5722 5721 5719 5719 5719 5721 5722 5723 5724 5724 5725 5725 5724 5723 5723 5722 5721 5718 5715 5712 5708 5705 5704
5661 5665 5672 5680 5679 5681 5684 5683 5685 5685 5685 5694 5689 5702 5717 5717 5713 5716 5714 5711 5710 5710 5709 5706 5705 5704 5704 5704 5705 5707 5708 5708 5708 5709 5708 5707 5706 5704 5703 5700 5698 5694 5692 5690
5649 5652 5657 5663 5667 5667 5668 5669 5672 5672 5677 5671 5687 5680 5703 5706 5701 5698 5698 5698 5697 5693 5693 5695 5695 5691 5688 5687 5688 5689 5690 5691 5691 5693 5691 5691 5689 5687 5686 5685 5684 5681 5678 5676
5637 5639 5642 5648 5653 5648 5652 5659 5661 5661 5664 5660 5664 5663 5685 5686 5685 5685 5683 5679 5682 5681 5681 5681 5681 5678 5673 5674 5675 5676 5677 5674 5673 5674 5674 5673 5672 5671 5670 5669 5669 5668 5665 5662
5622 5625 5625 5629 5633 5630 5632 5651 5650 5649 5650 5648 5643 5653 5662 5665 5672 5674 5666 5662 5667 5668 5667 5667 5666 5664 5663 5661 5660 5659 5659 5660 5660 5659 5658 5657 5656 5655 5653 5652 5651 5650 5649 5648
5609 5610 5609 5613 5614 5609 5624 5632 5634 5630 5634 5634 5630 5634 5643 5642 5649 5655 5650 5651 5650 5652 5652 5652 5651 5651 5650 5648 5647 5646 5644 5644 5644 5643 5642 5641 5640 5640 5639 5637 5635 5634 5633 5633
5596 5594 5594 5594 5598 5598 5606 5623 5619 5616 5613 5616 5613 5617 5623 5626 5628 5638 5634 5633 5632 5632 5633 5633 5632 5633 5631 5632 5632 5631 5629 5629 5628 5627 5627 5626 5624 5624 5624 5623 5621 5620 5618 5618
5582 5581 5579 5584 5581 5579 5599 5611 5603 5598 5589 5602 5598 5599 5603 5606 5607 5618 5617 5614 5614 5612 5613 5613 5612 5613 5613 5612 5613 5614 5613 5613 5612 5610 5609 5609 5608 5608 5607 5606 5605 5604 5602 5600
5569 5567 5565 5569 5564 5563 5588 5594 5589 5578 5583 5583 5581 5584 5587 5589 5588 5598 5600 5601 5597 5596 5595 5593 5594 5593 5594 5593 5593 5592 5593 5593 5594 5594 5593 5591 5590 5590 5589 5588 5587 5585 5584 5582
5554 5552 5553 5554 5551 5549 5574 5574 5572 5565 5565 5568 5566 5570 5567 5568 5573 5575 5580 5581 5581 5579 5580 5577 5578 5578 5578 5577 5576 5575 5574 5574 5574 5574 5574 5573 5572 5571 5571 5571 5570 5568 5567 5566
5534 5541 5541 5540 5538 5540 5549 5553 5552 5548 5548 5549 5548 5550 5548 5552 5553 5555 5560 5560 5561 5562 5562 5560 5560 5561 5561 5561 5560 5559 5558 5556 5558 5556 5555 5554 5554 5554 5553 5552 5552 5551 5551 5548
5521 5526 5519 5522 5530 5533 5530 5528 5529 5527 5525 5531 5531 5530 5529 5534 5536 5538 5540 5542 5541 5543 5542 5541 5541 5542 5541 5542 5542 5542 5541 5541 5541 5541 5539 5538 5537 5536 5535 5535 5535 5535 5533 5532
5509 5504 5509 5503 5513 5511 5510 5512 5510 5506 5506 5511 5512 5511 5513 5514 5522 5520 5522 5521 5522 5523 5523 5522 5522 5522 5522 5522 5523 5523 5523 5522 5522 5522 5522 5521 5521 5521 5520 5519 5519 5517 5515 5514
5495 5494 5486 5486 5496 5488 5490 5496 5491 5488 5489 5490 5491 5493 5494 5492 5498 5501 5502 5501 5501 5503 5504 5504 5504 5504 5504 5505 5505 5504 5504 5504 5504 5503 5503 5503 5503 5504 5502 5501 5500 5498 5497 5494
Wind_Speed
37 36 34 32 32 32 34 32 32 32 31 31 32 30 29 28 26 25 24 24 21 20 23 23 23 23 23 23 24 23 24 26 28 30 30 28 26 26 27 28 29 31 33 32
39 38 36 36 36 35 35 35 34 32 33 32 33 34 29 28 27 28 27 24 24 23 25 27 25 26 26 26 25 26 27 26 29 30 31 30 29 25 26 27 28 29 33 33
40 40 40 39 37 38 38 38 36 35 38 34 36 39 29 31 29 28 25 26 27 27 28 29 29 27 28 28 29 30 29 29 29 32 33 32 31 27 27 28 31 30 31 33
44 43 42 42 40 40 40 40 40 39 39 40 40 43 31 32 28 27 27 28 30 30 30 31 32 30 28 31 32 32 32 33 31 33 34 35 32 30 31 33 33 35 35 36
46 44 45 43 42 43 43 42 44 42 43 44 42 45 34 31 32 30 30 31 33 33 34 35 35 36 35 34 35 34 34 36 35 36 36 36 34 33 33 34 34 37 39 39
49 49 47 47 45 45 46 45 46 47 47 47 46 45 44 36 36 35 33 34 36 37 37 39 40 39 39 36 36 38 39 39 40 40 40 38 37 35 35 35 35 39 41 41
48 49 49 48 48 48 49 49 49 49 51 49 52 50 46 48 43 38 38 37 39 40 42 42 42 43 42 41 40 39 41 42 43 43 44 39 37 39 38 36 34 37 40 41
48 50 51 50 48 46 47 48 50 53 54 53 55 51 46 51 51 48 45 46 45 46 45 46 47 47 46 46 45 42 42 43 44 45 43 41 46 41 42 42 35 40 42 43
47 47 49 49 48 50 52 53 49 52 54 59 59 53 52 51 53 56 54 52 51 50 49 49 49 50 50 49 48 47 46 46 46 45 49 45 42 45 43 44 44 44 44 47
42 44 46 48 51 53 53 53 53 55 57 60 61 58 53 53 55 56 57 57 56 56 54 52 53 52 53 52 51 52 52 52 52 50 48 49 47 45 45 44 46 47 45 46
44 47 45 45 46 50 54 53 55 56 57 60 60 60 55 55 57 58 58 58 57 57 55 52 53 53 53 55 55 53 53 54 57 55 52 51 51 48 47 47 49 46 44 45
50 52 52 51 51 50 51 51 55 61 60 64 63 62 52 54 55 58 59 60 58 56 58 56 55 54 54 54 55 55 55 56 57 56 56 54 54 52 48 50 52 54 54 53
55 57 56 56 56 58 57 53 51 52 55 61 65 58 50 55 57 56 56 56 57 59 60 60 57 55 55 55 56 57 59 58 57 59 61 59 55 51 46 48 50 54 57 59
55 56 59 59 57 60 61 59 54 53 56 58 57 54 47 51 54 56 60 64 64 63 63 62 62 63 63 62 60 63 64 66 64 63 58 55 53 54 51 49 52 55 54 56
61 62 60 61 60 56 56 61 60 60 60 59 59 58 49 46 52 55 54 55 59 64 64 62 61 63 65 68 66 66 65 64 64 61 58 55 54 55 55 53 53 54 54 53
63 62 62 63 62 62 62 63 66 63 61 60 63 66 58 57 54 58 58 58 59 59 61 61 60 63 67 67 67 65 64 64 64 61 58 55 55 55 54 54 54 54 55 56
67 67 67 70 70 72 74 70 67 67 67 68 70 71 66 65 61 61 62 65 67 67 68 68 67 68 67 69 69 68 65 61 59 58 58 56 55 54 54 53 50 49 50 51
60 61 61 66 66 67 71 67 70 73 71 69 69 71 69 71 71 68 65 66 67 67 68 68 68 67 66 67 66 65 64 62 59 58 57 57 56 56 54 52 48 46 47 48
51 54 56 59 63 67 69 69 65 65 63 60 63 67 68 69 69 67 69 71 72 72 74 74 72 70 70 65 65 65 65 64 64 62 60 59 58 57 57 55 52 49 49 50
54 56 58 58 62 65 62 58 60 65 74 70 72 65 57 55 57 54 57 61 65 70 70 68 70 70 71 70 69 70 69 68 69 69 68 66 64 61 60 60 60 60 59 58
60 61 62 61 64 67 55 55 58 65 66 66 74 75 73 72 73 64 60 60 62 58 61 66 65 63 64 65 67 67 70 71 72 73 75 73 70 67 66 65 65 64 64 62
64 65 66 67 69 72 60 60 63 67 66 66 67 68 73 72 72 71 70 71 71 67 67 71 68 64 64 67 70 74 76 77 77 75 72 71 70 69 66 66 65 64 62 59
69 69 68 69 70 70 68 68 69 70 70 69 70 68 68 69 67 66 66 68 68 72 74 80 80 75 71 69 68 69 64 60 65 64 63 62 60 59 59 59 58 58 59 55
72 70 73 73 72 70 69 69 70 69 69 70 71 67 65 66 67 69 64 57 62 65 68 69 70 70 72 69 69 71 70 69 61 61 60 60 59 58 55 56 59 59 52 53
70 71 70 73 72 71 69 65 65 66 65 65 69 70 65 61 58 57 60 70 72 67 64 64 64 66 66 70 75 65 64 62 60 61 51 54 54 56 57 55 58 61 59 62
65 66 68 70 67 67 67 63 63 66 65 62 62 65 68 71 71 72 76 77 67 67 66 67 68 66 65 67 65 62 57 55 56 54 56 56 58 58 63 65 67 68 65 61
Wind_Direction
241 241 244 242 240 238 239 242 242 247 246 244 248 241 241 246 249 252 248 248 254 261 267 277 282 289 297 300 301 305 306 310 312 317 316 309 300 299 295 288 282 282 279 276
244 243 244 244 241 239 241 240 242 243 249 246 247 246 246 248 248 252 248 252 258 262 270 276 282 291 295 299 302 300 304 308 312 321 315 308 300 291 288 286 282 277 277 276
245 246 244 245 244 243 241 243 243 246 248 248 249 254 247 250 251 252 251 251 259 264 270 277 282 287 292 295 295 297 300 304 310 310 316 313 305 281 281 278 279 276 274 275
245 246 245 246 246 248 247 247 246 245 247 251 253 259 244 250 250 246 250 254 259 265 272 278 281 282 285 291 293 294 297 301 306 307 311 311 307 292 278 275 274 276 274 273
246 245 247 245 244 245 247 248 250 249 250 252 255 262 254 249 251 248 248 253 262 267 271 275 278 283 287 290 289 290 295 296 300 304 306 305 304 294 283 279 274 274 276 276
246 246 246 248 247 246 249 249 250 252 252 253 256 260 262 258 252 252 251 254 259 265 269 273 276 278 281 284 284 287 290 293 295 301 305 305 297 292 287 283 279 275 277 279
246 247 247 247 247 248 249 250 252 253 254 255 258 256 261 268 263 258 258 258 259 262 266 269 273 275 276 277 278 280 282 286 289 295 301 302 295 291 287 284 279 276 276 278
241 243 247 248 249 252 251 252 254 257 256 254 255 259 262 265 267 268 266 266 267 268 268 270 271 273 274 276 278 277 279 281 284 291 295 294 295 295 287 282 279 278 278 280
246 247 247 249 250 251 252 252 256 257 258 259 256 255 257 264 266 269 270 270 269 269 267 269 271 270 273 277 279 282 281 280 282 284 287 291 292 290 288 284 282 278 276 276
243 250 252 250 248 247 249 251 249 251 255 257 260 261 259 262 266 268 270 271 270 270 271 271 271 272 273 275 274 276 280 282 281 283 283 288 294 292 289 283 281 280 279 277
249 251 253 257 259 256 256 254 257 256 256 260 262 257 260 261 263 265 268 273 276 277 276 275 272 273 273 273 274 275 276 278 281 282 285 288 293 296 292 281 278 278 277 278
253 254 255 255 258 258 258 257 256 258 260 258 259 259 262 265 267 266 268 269 273 277 281 279 278 279 278 276 276 275 274 273 276 281 285 289 295 292 289 283 279 279 277 278
254 253 253 255 256 258 260 262 263 263 261 261 264 265 262 261 262 265 269 272 272 270 273 278 279 279 280 280 278 277 277 277 279 282 286 287 288 286 286 281 278 276 276 276
251 252 255 256 255 256 257 257 255 255 256 265 261 271 261 262 264 264 263 263 266 268 269 270 273 276 278 280 279 278 279 281 282 283 284 286 286 282 276 272 272 275 276 276
249 252 251 252 252 250 254 258 259 261 261 260 264 264 259 263 268 266 266 266 266 267 268 270 272 274 275 275 278 279 279 282 283 283 282 283 279 278 277 275 272 274 275 276
245 249 248 248 250 249 247 250 256 259 261 264 268 267 265 260 261 263 265 264 264 265 267 269 271 273 276 276 278 279 280 282 283 283 282 281 280 279 279 279 279 278 277 277
252 253 255 254 254 255 255 254 252 256 259 263 265 269 266 264 264 264 264 263 264 264 266 269 271 272 274 278 280 281 283 281 279 279 280 280 279 281 282 282 282 282 282 281
255 256 258 258 258 256 259 257 260 261 260 264 266 266 267 267 265 264 264 265 266 268 270 273 274 275 276 278 278 279 279 280 280 280 279 279 280 281 281 280 280 279 277 276
255 256 259 260 260 261 258 261 263 261 263 265 266 268 266 265 266 265 268 268 268 269 270 272 271 270 271 271 271 275 277 277 278 278 276 276 278 280 281 281 280 278 277 276
257 259 261 262 263 264 262 263 263 262 261 259 263 261 260 259 262 263 265 267 267 267 268 268 266 265 264 266 267 268 270 271 273 274 274 275 275 275 276 277 278 278 278 278
259 261 264 264 267 267 265 262 264 266 269 268 266 269 270 267 266 260 262 264 264 267 266 267 266 263 264 267 270 272 271 272 273 271 271 271 273 273 273 274 275 276 278 280
261 263 265 267 270 272 268 265 265 267 269 268 270 270 271 272 270 270 268 261 258 262 269 267 265 269 272 275 279 283 281 278 282 277 273 268 266 268 271 274 277 278 279 279
259 264 268 268 270 271 272 271 269 270 270 270 271 271 270 270 273 274 272 269 266 266 268 268 269 276 280 282 281 278 279 277 273 271 270 271 268 268 270 271 272 274 276 276
261 263 264 266 268 273 273 273 274 273 271 270 271 271 271 270 270 271 273 265 267 270 270 270 272 275 276 271 269 267 279 285 286 279 278 275 272 271 270 273 276 275 271 274
261 263 266 268 269 270 270 271 271 269 269 268 267 266 261 260 261 259 250 258 270 271 269 270 270 271 271 272 272 277 273 273 273 273 272 277 277 279 273 271 272 275 271 273
262 266 268 268 268 270 271 271 271 272 271 270 268 265 266 266 263 259 259 266 266 261 265 264 267 268 268 271 268 267 266 269 269 276 283 284 283 279 279 278 274 273 273 280